Location: Caussens
(43.9434°N, 0.4243°E)
Time: 13:00:44
(UTC+00:00)

Daily predictions for brighter satellites

Satellite Brightness Start Highest point End
(mag) Time Altitude Azimuth Time Altitude Azimuth Time Altitude Azimuth
IRS-1A Rocket 4.4 19:50:00 10° SSE 19:55:27 63° ENE 20:00:53 10° N
CZ-4 R/B 4.4 19:53:23 10° SW 19:55:52 15° W 19:58:22 10° NW
SL-19 R/B 4.4 19:53:30 10° S 19:56:57 75° WSW 20:00:59 10° NNW
USA 276 4.0 19:55:14 10° WNW 19:57:58 26° N 20:00:42 10° ENE
Cosmos 2369 3.9 19:52:28 10° NNW 19:58:06 64° ENE 20:03:42 10° SE
Cosmos 1825 2.3 19:54:23 10° SSW 19:58:07 78° W 20:01:53 10° N
Cosmos 1980 Rocket 2.6 19:54:40 10° NNW 20:00:08 49° ENE 20:05:35 10° SE
BREEZE-M DEB (TANK) 3.2 19:58:02 10° SSW 20:00:57 41° SE 20:08:51 10° ENE
MOS 1 4.3 19:56:00 10° SSE 20:01:38 73° ENE 20:07:18 10° N
Cosmos 1437 2.3 19:59:17 10° NNW 20:02:03 84° W 20:04:48 10° S
COSMOS 2406 3.4 19:58:22 10° SSW 20:04:02 80° WNW 20:09:47 10° NNE
Cosmos 1242 Rocket 2.9 20:01:15 10° NNW 20:04:49 68° W 20:08:19 10° S
Cosmos 2322 Rocket 4.1 20:06:05 10° N 20:09:33 16° NE 20:12:59 10° E
SPOT 3 Rocket 4.1 20:04:58 10° SE 20:09:52 42° ENE 20:14:47 10° N
Gbstr 26 Del rocket 4.3 20:09:39 10° NW 20:12:58 29° NNE 20:16:24 10° ENE
Cosmos 2279 Rocket 4.2 20:17:02 10° NNW 20:23:14 74° W 20:29:23 10° S
ISS -2.6 20:22:19 10° NW 20:25:31 38° NNE 20:28:39 10° E
Cosmos 1076 Rocket 3.6 20:21:32 10° S 20:25:46 59° E 20:30:04 10° NNE
ERS-2 2.1 20:24:40 10° NNE 20:28:21 88° WNW 20:31:58 10° SSW
Landsat 7 3.8 20:27:53 10° SSE 20:32:37 75° ENE 20:37:23 10° N
Resurs 1-3 4.3 20:29:35 10° S 20:33:52 53° W 20:38:10 10° NNW
Cosmos 1538 Rocket 4.0 20:30:53 10° S 20:36:01 62° ESE 20:41:09 10° NNE
Cosmos 1842 Rocket 4.0 20:31:41 10° NNW 20:36:08 67° W 20:40:34 10° S
SL-16 R/B 3.4 20:32:55 10° N 20:37:54 30° NE 20:42:00 14° ESE
ERBS 3.5 20:38:07 10° WNW 20:41:03 32° SW 20:43:15 15° S
Cosmos 2098 Rocket 2.2 20:38:54 10° S 20:41:53 87° E 20:45:22 10° N
Atlas Centaur 2 3.3 20:41:04 10° SSW 20:42:20 11° S 20:42:46 11° S
Cosmos 1271 Rocket 3.7 20:44:24 10° N 20:48:03 34° ENE 20:50:02 21° SE
Nadezhda 4 Rocket 4.0 20:45:40 10° S 20:51:49 87° W 20:58:06 10° N
GP-B 3.7 20:48:00 10° NNE 20:52:09 37° E 20:54:30 21° SE
Meteor 2-8 Rocket 4.5 20:46:13 10° N 20:52:24 88° W 20:58:22 11° S
CZ-2C R/B 3.7 20:47:56 10° NNE 20:52:26 60° ESE 20:56:44 10° S
GRACE-FO 1 4.4 20:50:31 10° N 20:54:08 81° E 20:56:50 17° S
GRACE-FO 2 4.4 20:50:58 10° N 20:54:35 82° E 20:57:17 17° S
Ariane Rocket 4.1 20:49:58 10° S 20:54:45 42° W 20:59:34 10° NNW
Cosmos 1697 Rocket 4.2 20:51:03 10° NW 20:56:02 32° WSW 21:01:00 10° SSW
Cosmos 304 Rocket 3.9 20:57:34 10° NNW 21:02:20 61° ENE 21:05:03 25° SE
Okean 3 Rocket 4.5 21:04:43 25° SE 21:06:16 32° E 21:10:15 10° NNE
SPOT 1/Viking Rocket 3.6 21:02:29 16° S 21:06:36 81° WSW 21:11:52 10° NNW
Cosmos 2082 Rocket 3.4 21:04:09 10° SW 21:09:32 45° WNW 21:14:58 10° NNE
USA 245 3.8 21:06:56 19° SSE 21:10:48 88° WSW 21:15:13 10° NNW
Cosmos 2278 4.2 21:08:05 10° NNW 21:13:38 56° WSW 21:17:44 18° S
Cosmos 1428 Rocket 4.4 21:09:22 15° S 21:14:33 69° E 21:20:38 10° NNE
Resurs 01 Rocket 3.1 21:12:50 10° SSW 21:16:51 34° W 21:20:55 10° NNW
BREEZE-M DEB (TANK) 2.7 21:14:57 10° WNW 21:18:11 83° SSW 21:23:01 22° ESE
BREEZE-M DEB (TANK) 3.9 21:15:49 10° WNW 21:19:30 79° SSW 21:26:51 21° SE
Cosmos 923 Rocket 4.0 21:17:39 13° S 21:22:28 70° ESE 21:27:48 10° NNE
Cosmos 2360 Rocket 3.4 21:17:45 10° N 21:22:43 31° NE 21:25:36 20° E
Meteor 1-26 Rocket 4.3 21:21:04 10° N 21:27:05 90° ENE 21:30:33 26° S
Cosmos 1553 Rocket 4.2 21:21:47 10° N 21:27:41 50° ENE 21:30:29 30° SE
Cosmos 371 Rocket 4.2 21:23:56 10° NW 21:28:28 42° WSW 21:31:29 19° SSW
ATLAS 2AS CENTAUR R/B 4.4 21:21:23 10° WSW 21:28:41 39° NW 21:35:49 10° NNE
Cosmos 2333 Rocket 4.1 21:25:26 10° N 21:29:27 19° NE 21:32:47 12° E
CARTOSAT-1 3.7 21:29:56 29° S 21:32:03 69° W 21:36:22 10° NNW
Cosmos 2151 4.1 21:29:40 10° SSW 21:33:41 42° WNW 21:37:45 10° N
USA 276 2.5 21:31:28 10° WNW 21:34:35 55° NNE 21:35:05 48° ENE
Cosmos 2056 Rocket 4.2 21:30:30 10° N 21:35:36 42° ENE 21:37:36 30° ESE
Cosmos 1812 3.1 21:33:05 10° N 21:36:49 44° ENE 21:37:16 41° E
ATLAS 3B R/B 3.3 21:31:04 10° NW 21:37:57 52° WSW 21:42:22 24° S
USA 267 3.5 21:32:57 10° ENE 21:39:10 45° SE 21:45:22 10° SSW
Cosmos 1933 4.3 21:37:09 10° NNW 21:41:00 43° W 21:42:58 24° SSW
Cosmos 2084 3.7 21:42:47 43° E 21:42:47 43° E 21:46:15 10° NE
ERS-1 Rocket 2.9 21:40:38 34° S 21:42:52 83° WSW 21:47:57 10° NNW
ARIANE 5 R/B 2.9 21:41:11 33° S 21:43:07 65° WSW 21:47:34 10° NNW
SPOT 5 2.6 21:41:37 40° S 21:43:08 81° WSW 21:47:32 10° NNW
SL-27 R/B 3.9 21:44:33 26° ENE 21:44:33 26° ENE 21:46:40 10° NE
Cosmos 1980 Rocket 3.9 21:39:16 10° NW 21:43:49 26° WSW 21:47:54 12° SSW
Terra 1.8 21:43:31 41° SSE 21:45:07 75° ENE 21:49:53 10° N
Cosmos 1515 Rocket 4.1 21:44:54 10° N 21:49:08 41° ENE 21:49:44 39° E
NOSS 2-1 (D) 4.3 21:54:21 26° NE 21:54:21 26° NE 21:55:59 10° NE
Cosmos 2322 Rocket 2.1 21:48:49 10° NNW 21:54:29 84° ENE 21:56:28 42° SSE
Spot 2 Rocket 4.3 21:52:07 24° SSW 21:54:52 45° W 21:59:47 10° NNW
Cosmos 1371 Rocket 4.1 21:51:41 10° NNW 21:57:04 71° ENE 21:58:42 45° SE
Cosmos 2112 Rocket 3.9 21:54:10 27° SSW 21:57:09 89° ESE 22:02:28 10° NNE
S3M 4.2 21:51:06 10° N 21:57:25 59° ENE 21:59:44 38° SE
Cosmos 1680 Rocket 3.6 21:54:17 20° SSW 21:57:59 78° WNW 22:03:16 10° NNE
Cosmos 1766 Rocket 3.8 21:57:59 34° SSW 21:59:46 65° W 22:04:09 10° N
Gbstr 26 Del rocket 2.6 21:56:15 10° WNW 22:00:03 87° SSW 22:00:26 72° SE
Cosmos 1809 Rocket 4.5 21:56:27 26° SSW 22:00:10 82° W 22:06:21 10° N
H-2A R/B 3.4 21:56:15 10° NNE 22:00:25 60° ESE 22:00:37 59° ESE
ISS -2.5 21:59:11 10° WNW 22:01:36 33° WSW 22:01:36 33° WSW
Cosmos 1862 3.1 22:02:44 74° SSE 22:03:01 81° E 22:07:01 10° N
COSMOS 2455 3.7 22:05:54 31° ESE 22:05:54 31° ESE 22:10:49 10° NE
Cosmos 1151 Rocket 3.6 22:02:26 10° NNW 22:06:40 52° W 22:07:51 40° SW
Cosmos 1328 Rocket 3.7 22:03:33 10° NNW 22:07:59 69° W 22:08:54 52° SSW
Cosmos 1782 4.1 22:07:01 10° NNW 22:10:40 34° W 22:11:47 28° SW
USA 234 4.1 22:07:28 14° E 22:12:49 45° NNE 22:18:59 10° NW
Cosmos 2219 Rocket 3.3 22:12:17 10° N 22:17:20 33° NE 22:19:12 26° E
COBE Rocket 4.5 22:16:53 37° E 22:17:21 38° ENE 22:21:41 10° N
SL-16 R/B 2.9 22:16:47 10° NW 22:22:10 45° WSW 22:23:52 35° SSW
Cosmos 2237 4.2 22:18:45 10° NNW 22:24:28 75° WSW 22:25:50 53° S
Meteor 2-21 Rocket 4.5 22:23:08 38° SSW 22:25:41 82° W 22:31:54 10° N
Meteor 2-6 Rocket 4.3 22:21:04 10° NNW 22:26:25 63° W 22:27:52 45° SSW
COSMOS 2428 3.9 22:22:39 10° N 22:27:47 33° NE 22:29:40 27° E
Cosmos 1805 Rocket 4.4 22:32:29 38° ENE 22:32:29 38° ENE 22:36:03 10° NNE
Cosmos 292 Rocket 3.6 22:29:47 10° NNW 22:34:35 81° ENE 22:34:52 76° ESE
Cosmos 1624 Rocket 4.2 22:32:44 10° NNW 22:37:51 58° WSW 22:38:38 52° SW
CZ-3B R/B 3.3 22:34:04 10° NW 22:43:02 45° NNE 22:44:24 32° ENE
Cosmos 1500 Rocket 3.5 22:43:12 83° WNW 22:43:12 83° WNW 22:47:34 10° N
ATLAS 5 CENTAUR R/B 3.6 22:41:52 10° NNW 22:46:48 33° NE 22:49:59 21° E
Meteor 1-27 Rocket 3.6 22:43:51 10° N 22:49:31 88° W 22:50:25 65° S
Cosmos 1420 Rocket 4.0 22:44:26 10° NNW 22:49:45 69° WSW 22:50:16 64° SW
NOSS 2-1 (E) 4.4 22:51:16 35° NNW 22:51:16 35° NNW 22:54:10 10° NNE
NOSS 3-1 (C) 4.1 22:47:51 10° NW 22:55:26 81° NE 22:58:46 42° SE
Cosmos 972 Rocket 3.9 22:55:32 76° SSE 22:55:53 81° ESE 23:00:59 10° NNE
Cosmos 1743 Rocket 4.1 23:02:37 53° W 23:02:43 53° WNW 23:07:06 10° N
Cosmos 2285 Rocket 4.0 22:57:16 10° NNW 23:03:36 75° ENE 23:04:48 59° SE
Meteor 1-20 Rocket 4.1 23:05:25 69° ESE 23:05:44 70° E 23:11:23 10° NNE
Cosmos 2360 Rocket 2.7 23:01:33 10° NW 23:06:52 44° WSW 23:07:21 43° WSW
Cosmos 2315 Rocket 4.0 23:01:44 10° N 23:08:03 77° W 23:09:19 59° SSW
Cosmos 1452 Rocket 3.3 23:03:01 10° NNW 23:08:19 88° ENE 23:08:29 84° SE
USA 229 DEB 4.1 23:01:44 10° NNW 23:09:01 65° NE 23:12:08 38° ESE
USA 229 4.1 23:01:50 10° NNW 23:09:07 64° NE 23:12:15 37° ESE
COSMOS 2487 4.3 23:13:20 28° N 23:13:20 28° N 23:15:05 10° NNE
Spot 4 3.9 23:14:03 72° W 23:14:03 72° W 23:18:44 10° NNW
Sich 1 3.4 23:14:38 63° N 23:14:38 63° N 23:18:19 10° N
Cosmos 2333 Rocket 2.0 23:08:44 10° NNW 23:14:25 79° WSW 23:14:46 75° SSW
Meteor 1-22 4.4 23:14:50 79° SSW 23:15:11 87° W 23:20:43 10° N
Cosmos 1633 Rocket 4.1 23:17:04 37° NE 23:17:04 37° NE 23:20:12 10° NNE
Cosmos 1666 Rocket 4.3 23:20:10 47° NE 23:20:10 47° NE 23:23:37 10° NNE
Cosmos 2228 Rocket 3.8 23:17:34 10° NNW 23:21:21 47° WNW 23:21:21 47° WNW
Cosmos 489 Rocket 4.3 23:20:58 67° S 23:21:53 83° ESE 23:28:16 10° NNE
USA 267 3.7 23:15:53 10° NE 23:22:19 62° NNW 23:28:44 10° WSW
Terra 4.2 23:22:24 12° WSW 23:23:24 12° W 23:25:23 10° WNW
Cosmos 2322 3.7 23:19:58 10° NNW 23:25:39 68° WSW 23:25:53 67° SW
NOSS 3-1 (A) 4.1 23:21:57 10° NW 23:29:33 81° NE 23:32:41 44° SE
Cosmos 2297 Rocket 3.4 23:32:09 30° E 23:32:09 30° E 23:36:17 10° NE
Meteor 1-18 Rocket 4.3 23:26:02 10° N 23:31:53 68° ENE 23:32:22 64° ESE
Cosmos 1110 Rocket 3.9 23:30:15 10° NNW 23:35:36 80° ENE 23:35:37 80° ENE
Cosmos 2237 Rocket 3.1 23:32:15 10° NNW 23:37:39 42° ENE 23:38:58 36° E
Cosmos 2322 Rocket 4.3 23:34:57 10° WNW 23:37:42 14° W 23:38:16 14° WSW
Okean 1 4.3 23:34:30 10° N 23:37:21 45° N 23:37:21 45° N
Meteor 1-25 Rocket 4.3 23:38:17 63° WSW 23:38:48 67° WNW 23:44:23 10° N
Cosmos 1331 Rocket 3.9 23:36:43 10° NNW 23:41:53 81° NE 23:41:53 81° NE
Cosmos 2227 Rocket 3.5 23:43:37 28° E 23:43:37 28° E 23:47:41 10° NE
Cosmos 1745 Rocket 4.1 23:43:09 55° ESE 23:43:43 57° E 23:49:51 10° NNE
Cosmos 1862 Rocket 4.2 23:39:32 10° N 23:43:02 52° NNE 23:43:02 52° NNE
ALOS 2 3.4 23:50:25 44° WNW 23:50:25 44° WNW 23:53:49 10° NNW
COSMOS 2455 3.6 23:49:00 33° WSW 23:51:19 49° NW 23:57:09 10° NNE
Cosmos 1707 Rocket 4.4 23:49:11 10° NNW 23:52:31 43° NW 23:52:31 43° NW
